Location: Ahstedt
(52.2048°N, 10.1060°E)
Time: 23:21:15
(UTC+00:00)

Cosmos 1959 Rocket - Visible Passes

Search period start: 18 April 2026 00:00
Search period end: 28 April 2026 00:00
Orbit: 947 x 996 km, 82.9° (Epoch: 18 April)

Date Brightness Start Highest point End Pass type
(mag) Time Alt. Az. Time Alt. Az. Time Alt. Az.
18 Apr 4.5 19:34:08 10° S 19:40:28 87° E 19:46:49 10° N visible
18 Apr 6.8 21:21:52 10° WSW 21:26:39 22° WNW 21:31:25 10° N visible
19 Apr 5.1 19:58:25 10° SSW 20:04:41 61° WNW 20:10:55 10° N visible
19 Apr 7.2 21:48:06 10° W 21:51:25 14° NW 21:54:44 10° NNW visible
20 Apr 5.9 20:23:09 10° SW 20:29:01 39° WNW 20:34:54 10° N visible
21 Apr 4.5 19:01:17 10° S 19:07:35 74° E 19:13:52 10° NNE visible
21 Apr 6.7 20:48:23 10° WSW 20:53:32 26° WNW 20:58:41 10° N visible
22 Apr 4.9 19:25:24 10° SSW 19:31:43 72° WNW 19:38:01 10° N visible
22 Apr 7.2 21:14:16 10° W 21:18:14 17° NW 21:22:12 10° NNW visible
23 Apr 5.7 19:49:58 10° SW 19:56:01 46° WNW 20:02:03 10° N visible
23 Apr 7.6 21:41:28 10° WNW 21:43:07 11° NW 21:44:45 10° NNW visible
24 Apr 6.5 20:15:00 10° SW 20:20:27 30° WNW 20:25:54 10° N visible
25 Apr 7.2 20:40:36 10° WSW 20:45:05 20° WNW 20:49:34 10° NNW visible
26 Apr 5.4 19:16:51 10° SSW 19:23:01 55° WNW 19:29:11 10° N visible
26 Apr 7.5 21:07:05 10° WNW 21:09:53 13° NW 21:12:41 10° NNW visible
27 Apr 6.3 19:41:42 10° SW 19:47:24 35° WNW 19:53:06 10° N visible
